Time,TemperatureF,DewpointF,PressureIn,WindDirection,WindDirectionDegrees,WindSpeedMPH,WindSpeedGustMPH,Humidity,HourlyPrecipIn,Conditions,Clouds,dailyrainin,SoftwareType,DateUTC
2013-01-17 00:15:00,50.0,48.0,30.01,WSW,245,0.0,-999.0,94,-99.99,,,0.04,weatherlink.com 1.10,2013-01-17 05:15:00,
2013-01-17 00:30:00,50.0,48.0,30.00,WSW,245,0.0,-999.0,94,-99.99,,,0.06,weatherlink.com 1.10,2013-01-17 05:30:00,
2013-01-17 00:45:00,50.1,49.0,30.00,WSW,245,0.0,-999.0,94,-99.99,,,0.08,weatherlink.com 1.10,2013-01-17 05:45:00,
2013-01-17 01:00:00,50.1,49.0,29.99,WSW,245,0.0,-999.0,94,-99.99,,,0.09,weatherlink.com 1.10,2013-01-17 06:00:00,
2013-01-17 01:15:00,50.1,49.0,29.98,WSW,245,0.0,-999.0,94,-99.99,,,0.09,weatherlink.com 1.10,2013-01-17 06:15:00,
2013-01-17 01:30:00,50.1,49.0,30.00,WSW,245,0.0,-999.0,94,-99.99,,,0.09,weatherlink.com 1.10,2013-01-17 06:30:00,
2013-01-17 01:46:00,50.2,49.0,30.00,WSW,245,0.0,-999.0,94,-99.99,,,0.09,weatherlink.com 1.10,2013-01-17 06:46:00,
2013-01-17 02:01:00,50.2,49.0,30.00,WSW,245,0.0,-999.0,94,-99.99,,,0.09,weatherlink.com 1.10,2013-01-17 07:01:00,
2013-01-17 02:16:00,50.1,49.0,30.00,WSW,245,0.0,-999.0,94,-99.99,,,0.09,weatherlink.com 1.10,2013-01-17 07:16:00,
2013-01-17 02:31:00,50.3,49.0,30.00,WSW,245,0.0,-999.0,94,-99.99,,,0.09,weatherlink.com 1.10,2013-01-17 07:31:00,
2013-01-17 02:46:00,50.3,49.0,29.99,WSW,245,0.0,-999.0,94,-99.99,,,0.09,weatherlink.com 1.10,2013-01-17 07:46:00,
2013-01-17 03:01:00,50.3,49.0,29.99,WSW,245,0.0,-999.0,94,-99.99,,,0.10,weatherlink.com 1.10,2013-01-17 08:01:00,
2013-01-17 03:16:00,50.3,49.0,29.98,WSW,245,0.0,-999.0,94,-99.99,,,0.10,weatherlink.com 1.10,2013-01-17 08:16:00,
2013-01-17 03:31:00,50.3,49.0,29.98,WSW,245,0.0,-999.0,94,-99.99,,,0.10,weatherlink.com 1.10,2013-01-17 08:31:00,
2013-01-17 03:46:00,50.3,49.0,29.98,WSW,245,0.0,-999.0,94,-99.99,,,0.11,weatherlink.com 1.10,2013-01-17 08:46:00,
2013-01-17 04:01:00,50.3,49.0,29.97,WSW,245,0.0,-999.0,94,-99.99,,,0.12,weatherlink.com 1.10,2013-01-17 09:01:00,
2013-01-17 04:16:00,50.4,49.0,29.97,WSW,245,0.0,-999.0,94,-99.99,,,0.14,weatherlink.com 1.10,2013-01-17 09:16:00,
2013-01-17 04:31:00,50.4,49.0,29.97,WSW,245,0.0,-999.0,94,-99.99,,,0.15,weatherlink.com 1.10,2013-01-17 09:31:00,
2013-01-17 04:46:00,50.4,49.0,29.97,WSW,245,0.0,-999.0,94,-99.99,,,0.16,weatherlink.com 1.10,2013-01-17 09:46:00,
2013-01-17 05:02:00,50.4,49.0,29.97,WSW,245,0.0,-999.0,94,-99.99,,,0.16,weatherlink.com 1.10,2013-01-17 10:02:00,
2013-01-17 05:17:00,50.5,49.0,29.96,WSW,245,0.0,-999.0,94,-99.99,,,0.17,weatherlink.com 1.10,2013-01-17 10:17:00,
2013-01-17 05:32:00,50.5,49.0,29.98,WSW,245,0.0,-999.0,94,-99.99,,,0.17,weatherlink.com 1.10,2013-01-17 10:32:00,
2013-01-17 05:47:00,50.6,49.0,29.97,WSW,242,0.0,-999.0,94,-99.99,,,0.20,weatherlink.com 1.10,2013-01-17 10:47:00,
2013-01-17 06:02:00,50.7,49.0,29.96,WSW,242,0.0,-999.0,94,-99.99,,,0.22,weatherlink.com 1.10,2013-01-17 11:02:00,
2013-01-17 06:17:00,50.8,49.0,29.97,WSW,242,0.0,-999.0,94,-99.99,,,0.22,weatherlink.com 1.10,2013-01-17 11:17:00,
2013-01-17 06:32:00,50.8,49.0,29.97,WSW,242,0.0,-999.0,94,-99.99,,,0.25,weatherlink.com 1.10,2013-01-17 11:32:00,
2013-01-17 06:47:00,51.0,49.0,29.96,SSE,150,0.0,-999.0,94,-99.99,,,0.29,weatherlink.com 1.10,2013-01-17 11:47:00,
2013-01-17 07:02:00,51.1,50.0,29.96,NE,34,2.0,-999.0,94,-99.99,,,0.30,weatherlink.com 1.10,2013-01-17 12:02:00,
2013-01-17 07:17:00,51.2,50.0,29.97,NW,316,0.0,-999.0,94,-99.99,,,0.32,weatherlink.com 1.10,2013-01-17 12:17:00,
2013-01-17 07:32:00,51.3,50.0,29.98,NNW,337,2.0,-999.0,94,-99.99,,,0.36,weatherlink.com 1.10,2013-01-17 12:32:00,
2013-01-17 07:47:00,51.3,50.0,29.98,North,5,0.0,-999.0,94,-99.99,,,0.37,weatherlink.com 1.10,2013-01-17 12:47:00,
2013-01-17 08:03:00,51.3,50.0,29.98,NE,34,1.0,-999.0,94,-99.99,,,0.40,weatherlink.com 1.10,2013-01-17 13:03:00,
2013-01-17 08:18:00,51.3,50.0,29.98,NE,49,1.0,-999.0,94,-99.99,,,0.41,weatherlink.com 1.10,2013-01-17 13:18:00,
2013-01-17 08:33:00,51.3,50.0,29.98,ENE,75,1.0,-999.0,94,-99.99,,,0.43,weatherlink.com 1.10,2013-01-17 13:33:00,
2013-01-17 08:48:00,51.3,50.0,29.98,ENE,65,0.0,-999.0,94,-99.99,,,0.44,weatherlink.com 1.10,2013-01-17 13:48:00,
2013-01-17 09:03:00,51.3,50.0,29.98,ENE,68,1.0,-999.0,94,-99.99,,,0.44,weatherlink.com 1.10,2013-01-17 14:03:00,
2013-01-17 09:18:00,51.2,50.0,29.98,NE,34,3.0,-999.0,94,-99.99,,,0.45,weatherlink.com 1.10,2013-01-17 14:18:00,
2013-01-17 09:33:00,50.9,49.0,29.98,NNE,22,3.0,-999.0,93,-99.99,,,0.47,weatherlink.com 1.10,2013-01-17 14:33:00,
2013-01-17 09:48:00,50.8,49.0,29.98,North,360,1.0,-999.0,93,-99.99,,,0.49,weatherlink.com 1.10,2013-01-17 14:48:00,
2013-01-17 10:03:00,50.8,49.0,29.99,NNW,327,2.0,-999.0,93,-99.99,,,0.54,weatherlink.com 1.10,2013-01-17 15:03:00,
2013-01-17 10:18:00,50.8,49.0,29.98,North,355,1.0,-999.0,93,-99.99,,,0.58,weatherlink.com 1.10,2013-01-17 15:18:00,
2013-01-17 10:33:00,50.7,49.0,29.97,NE,40,3.0,-999.0,93,-99.99,,,0.61,weatherlink.com 1.10,2013-01-17 15:33:00,
2013-01-17 10:48:00,50.6,49.0,29.96,ENE,74,3.0,-999.0,93,-99.99,,,0.65,weatherlink.com 1.10,2013-01-17 15:48:00,
2013-01-17 11:03:00,50.6,49.0,29.97,NE,45,4.0,-999.0,93,-99.99,,,0.66,weatherlink.com 1.10,2013-01-17 16:03:00,
2013-01-17 11:19:00,50.6,49.0,29.94,North,360,1.0,-999.0,93,-99.99,,,0.72,weatherlink.com 1.10,2013-01-17 16:19:00,
2013-01-17 11:34:00,50.6,49.0,29.91,ENE,63,0.0,-999.0,93,-99.99,,,0.72,weatherlink.com 1.10,2013-01-17 16:34:00,
2013-01-17 11:49:00,50.2,48.0,29.91,NE,49,2.0,-999.0,92,-99.99,,,0.72,weatherlink.com 1.10,2013-01-17 16:49:00,
2013-01-17 12:04:00,49.6,47.0,29.90,North,5,6.0,-999.0,92,-99.99,,,0.74,weatherlink.com 1.10,2013-01-17 17:04:00,
2013-01-17 12:19:00,49.2,47.0,29.89,North,350,13.0,-999.0,92,-99.99,,,0.77,weatherlink.com 1.10,2013-01-17 17:19:00,
2013-01-17 12:34:00,48.8,47.0,29.88,ESE,113,8.0,-999.0,92,-99.99,,,0.78,weatherlink.com 1.10,2013-01-17 17:34:00,
2013-01-17 12:49:00,48.6,46.0,29.88,North,5,1.0,-999.0,92,-99.99,,,0.81,weatherlink.com 1.10,2013-01-17 17:49:00,
2013-01-17 13:04:00,48.5,46.0,29.88,NE,53,1.0,-999.0,92,-99.99,,,0.86,weatherlink.com 1.10,2013-01-17 18:04:00,
2013-01-17 13:19:00,48.3,46.0,29.86,NNE,15,2.0,-999.0,92,-99.99,,,0.94,weatherlink.com 1.10,2013-01-17 18:19:00,
2013-01-17 13:35:00,48.0,46.0,29.84,NNW,346,10.0,-999.0,92,-99.99,,,0.95,weatherlink.com 1.10,2013-01-17 18:35:00,
2013-01-17 13:50:00,47.6,45.0,29.82,NNE,13,7.0,-999.0,92,-99.99,,,0.98,weatherlink.com 1.10,2013-01-17 18:50:00,
2013-01-17 14:05:00,46.7,44.0,29.83,NNE,17,4.0,-999.0,91,-99.99,,,1.00,weatherlink.com 1.10,2013-01-17 19:05:00,
2013-01-17 14:20:00,46.0,44.0,29.82,NW,325,2.0,-999.0,91,-99.99,,,1.10,weatherlink.com 1.10,2013-01-17 19:20:00,
2013-01-17 14:35:00,45.9,44.0,29.82,NW,323,5.0,-999.0,92,-99.99,,,1.17,weatherlink.com 1.10,2013-01-17 19:35:00,
2013-01-17 14:50:00,44.9,43.0,29.82,ESE,113,3.0,-999.0,91,-99.99,,,1.22,weatherlink.com 1.10,2013-01-17 19:50:00,
2013-01-17 15:05:00,43.8,41.0,29.82,NNW,344,5.0,-999.0,91,-99.99,,,1.29,weatherlink.com 1.10,2013-01-17 20:05:00,
2013-01-17 15:20:00,42.9,41.0,29.83,North,360,1.0,-999.0,91,-99.99,,,1.40,weatherlink.com 1.10,2013-01-17 20:20:00,
2013-01-17 15:35:00,42.8,41.0,29.84,NNW,329,0.0,-999.0,92,-99.99,,,1.45,weatherlink.com 1.10,2013-01-17 20:35:00,
2013-01-17 15:50:00,42.6,40.0,29.93,ENE,64,1.0,-999.0,91,-99.99,,,1.53,weatherlink.com 1.10,2013-01-17 20:50:00,
2013-01-17 16:06:00,41.9,40.0,29.94,NW,326,2.0,-999.0,92,-99.99,,,1.62,weatherlink.com 1.10,2013-01-17 21:06:00,
2013-01-17 16:21:00,41.6,40.0,29.88,NNE,33,2.0,-999.0,92,-99.99,,,1.67,weatherlink.com 1.10,2013-01-17 21:21:00,
2013-01-17 16:36:00,41.5,39.0,29.92,NW,318,1.0,-999.0,92,-99.99,,,1.71,weatherlink.com 1.10,2013-01-17 21:36:00,
2013-01-17 16:51:00,41.3,39.0,29.90,NNE,29,1.0,-999.0,92,-99.99,,,1.75,weatherlink.com 1.10,2013-01-17 21:51:00,
2013-01-17 17:06:00,41.2,39.0,29.87,NNE,24,4.0,-999.0,92,-99.99,,,1.79,weatherlink.com 1.10,2013-01-17 22:06:00,
2013-01-17 17:21:00,41.3,39.0,29.88,NE,35,4.0,-999.0,92,-99.99,,,1.83,weatherlink.com 1.10,2013-01-17 22:21:00,
2013-01-17 17:36:00,41.4,39.0,29.86,NE,44,4.0,-999.0,91,-99.99,,,1.88,weatherlink.com 1.10,2013-01-17 22:36:00,
2013-01-17 17:51:00,41.3,39.0,29.88,NE,38,2.0,-999.0,91,-99.99,,,1.92,weatherlink.com 1.10,2013-01-17 22:51:00,
2013-01-17 18:06:00,41.2,39.0,29.89,North,355,12.0,-999.0,91,-99.99,,,1.94,weatherlink.com 1.10,2013-01-17 23:06:00,
2013-01-17 18:21:00,41.0,39.0,29.91,NW,325,6.0,-999.0,91,-99.99,,,1.95,weatherlink.com 1.10,2013-01-17 23:21:00,
2013-01-17 18:36:00,41.1,39.0,29.93,NE,46,4.0,-999.0,91,-99.99,,,1.96,weatherlink.com 1.10,2013-01-17 23:36:00,
2013-01-17 18:51:00,41.2,39.0,29.95,NW,304,1.0,-999.0,90,-99.99,,,1.98,weatherlink.com 1.10,2013-01-17 23:51:00,
2013-01-17 19:07:00,40.8,38.0,29.99,NNE,26,4.0,-999.0,90,-99.99,,,2.02,weatherlink.com 1.10,2013-01-18 00:07:00,
2013-01-17 19:22:00,40.3,38.0,30.00,NW,318,6.0,-999.0,90,-99.99,,,2.04,weatherlink.com 1.10,2013-01-18 00:22:00,
2013-01-17 19:37:00,39.1,37.0,30.01,NE,55,7.0,-999.0,90,-99.99,,,2.08,weatherlink.com 1.10,2013-01-18 00:37:00,
2013-01-17 19:52:00,38.4,36.0,30.03,North,360,3.0,-999.0,90,-99.99,,,2.11,weatherlink.com 1.10,2013-01-18 00:52:00,
2013-01-17 20:07:00,37.7,35.0,30.04,NNW,342,0.0,-999.0,91,-99.99,,,2.15,weatherlink.com 1.10,2013-01-18 01:07:00,
2013-01-17 20:22:00,37.3,35.0,30.07,NW,319,0.0,-999.0,91,-99.99,,,2.16,weatherlink.com 1.10,2013-01-18 01:22:00,
2013-01-17 20:37:00,36.9,35.0,30.10,WNW,287,0.0,-999.0,91,-99.99,,,2.18,weatherlink.com 1.10,2013-01-18 01:37:00,
2013-01-17 20:52:00,36.4,34.0,30.13,NW,318,3.0,-999.0,91,-99.99,,,2.20,weatherlink.com 1.10,2013-01-18 01:52:00,
2013-01-17 21:08:00,35.4,33.0,30.16,NW,320,1.0,-999.0,91,-99.99,,,2.22,weatherlink.com 1.10,2013-01-18 02:08:00,
2013-01-17 21:23:00,34.9,33.0,30.18,West,275,0.0,-999.0,92,-99.99,,,2.22,weatherlink.com 1.10,2013-01-18 02:23:00,
2013-01-17 21:38:00,34.7,33.0,30.19,WSW,247,1.0,-999.0,92,-99.99,,,2.23,weatherlink.com 1.10,2013-01-18 02:38:00,
2013-01-17 21:53:00,34.9,33.0,30.19,West,277,0.0,-999.0,93,-99.99,,,2.25,weatherlink.com 1.10,2013-01-18 02:53:00,
2013-01-17 22:08:00,35.2,33.0,30.16,West,277,0.0,-999.0,93,-99.99,,,2.26,weatherlink.com 1.10,2013-01-18 03:08:00,
2013-01-17 22:23:00,35.2,33.0,30.18,WNW,295,0.0,-999.0,93,-99.99,,,2.26,weatherlink.com 1.10,2013-01-18 03:23:00,
2013-01-17 22:38:00,35.1,33.0,30.20,WNW,295,0.0,-999.0,93,-99.99,,,2.26,weatherlink.com 1.10,2013-01-18 03:38:00,
2013-01-17 22:53:00,34.7,33.0,30.20,WNW,295,0.0,-999.0,93,-99.99,,,2.26,weatherlink.com 1.10,2013-01-18 03:53:00,
2013-01-17 23:08:00,34.3,32.0,30.20,WNW,295,0.0,-999.0,92,-99.99,,,2.27,weatherlink.com 1.10,2013-01-18 04:08:00,
2013-01-17 23:23:00,33.9,32.0,30.19,WNW,295,0.0,-999.0,92,-99.99,,,2.27,weatherlink.com 1.10,2013-01-18 04:23:00,
2013-01-17 23:38:00,33.9,32.0,30.22,WNW,295,0.0,-999.0,93,-99.99,,,2.27,weatherlink.com 1.10,2013-01-18 04:38:00,
2013-01-17 23:54:00,33.7,32.0,30.22,WNW,295,0.0,-999.0,93,-99.99,,,0.00,weatherlink.com 1.10,2013-01-18 04:54:00,